Location: Unspecified
(0.0000°N, 0.0000°E)
Time: 23:44:29
(UTC+00:00)

deb Explorer IX - Pass Details

Date: 17 December 2018
Orbit: 538 x 1115 km, 38.8° (Epoch: 17 January)

Event Time Altitude Azimuth Distance (km) Brightness Sun altitude
Rises 11:36:58 0° 199° (SSW) 3,830 ? 66.2°
Reaches altitude 10° 11:41:29 10° 174° (S) 2,771 ? 66.4°
Maximum altitude 11:44:33 13° 146° (SSE) 2,441 ? 66.5°
Drops below altitude 10° 11:47:27 10° 119° (ESE) 2,589 ? 66.5°
Sets 11:51:21 0° 92° (E) 3,386 ? 66.6°
